Powrót do katalogu

COSMOS 569

AktywnyMilitariaLEO
NORAD 6680·PAYLOAD·🇷🇺 Russia

Wystrzelony Jun 8, 1973 z Plesetsk Cosmodrome

Loading…

Następne Przeloty (najbliższe 24 godziny)

TLE

ŚwieżeSource: Space-Track

Epoka: Sep 14, 2026, 14:53 UTC

1  6680U 73037F   26257.62016845 -.00000006  00000-0  58689-4 0  9991
2  6680  74.0222  12.8877 0078673 157.6306 214.4307 12.61179616452340

Śledź COSMOS 569 w czasie rzeczywistym z AllMySat

Download on the App Store